Home > Weather > Nashville > Past weeks

Flag for USA Past Weather in Nashville, Tennessee, USA — Yesterday and Last 2 Weeks

Now
73 °F

Thundershowers. Partly sunny.


Feels Like: 75 °F
Forecast: 66 / 86 °F
Wind: 18 mph from Northeast

Location: Nashville International Airport

Current Time: May 26, 2016 at 5:44:06 PM

Latest Report: May 26, 2016 at 5:04 PM


Visibility: 10 mi

Pressure: 30.04 "Hg

Humidity: 74%

Dew Point: 64 °F

Location of NashvilleLocation

Past Weather in Nashville — Graph

°F

Nashville Temperature Yesterday

Maximum temperature yesterday: 85 °F (at 1:53 PM)
Minimum temperature yesterday: 66 °F (at 12:53 AM)
Average temperature yesterday: 73 °F

High & Low Weather Summary for the Past Weeks

 TemperatureHumidityPressure
High90 °F (May 26, 2:53 PM)94% (May 17, 3:02 AM)30.25 "Hg (May 17, 3:02 AM)
Low41 °F (May 15, 4:53 AM)26% (May 15, 4:53 PM)29.93 "Hg (May 14, 4:53 AM)
Average65 °F64%30.06 "Hg
* Reported May 11 3:53 PM — May 26 3:53 PM, Nashville, Weather by CustomWeather, © 2016

Note: Actual official high and low records may vary slightly from our data, if they occured in-between our weather recording intervals... More about our weather records

Advertising

Nashville Weather History for the Previous 24 Hours

Scroll right to see more
 ConditionsComfort  
Time TempWeatherWind HumidityBarometerVisibility
3:53 PM
Thu, May 26
89 °FBroken clouds.13 mph39%29.99 "Hg10 mi
2:53 PM90 °FBroken clouds.9 mph41%30.00 "Hg10 mi
1:53 PM88 °FScattered clouds.14 mph46%30.01 "Hg10 mi
12:53 PM87 °FPartly sunny.9 mph50%30.05 "Hg10 mi
11:53 AM84 °FPartly sunny.6 mph55%30.08 "Hg10 mi
10:53 AM83 °FPartly sunny.12 mph55%30.10 "Hg10 mi
9:53 AM80 °FPartly sunny.8 mph60%30.10 "Hg10 mi
8:53 AM76 °FBroken clouds.8 mph67%30.10 "Hg10 mi
7:53 AM72 °FScattered clouds.7 mph73%30.10 "Hg10 mi
6:53 AM68 °FScattered clouds.No wind84%30.09 "Hg10 mi
5:53 AM66 °FPartly sunny.5 mph87%30.09 "Hg10 mi
4:53 AM65 °FPassing clouds.6 mph91%30.09 "Hg10 mi
3:53 AM65 °FOvercast.5 mph91%30.09 "Hg8 mi
2:53 AM67 °FPassing clouds.No wind87%30.09 "Hg10 mi
1:53 AM66 °FPassing clouds.No wind90%30.07 "Hg7 mi
12:53 AM66 °FFog.No wind90%30.08 "Hg5 mi
11:53 PM
Wed, May 25
67 °FOvercast.No wind90%30.08 "Hg7 mi
10:53 PM66 °FPartly cloudy.No wind90%30.08 "Hg8 mi
9:53 PM67 °FPassing clouds.No wind90%30.09 "Hg10 mi
8:53 PM67 °FPassing clouds.10 mph90%30.06 "Hg10 mi
7:53 PM67 °FMostly cloudy.3 mph90%30.14 "Hg10 mi
6:53 PM74 °FCloudy.3 mph74%30.12 "Hg7 mi
5:53 PM76 °FCloudy.10 mph67%30.10 "Hg10 mi
Weather by CustomWeather, © 2016

See weather overviewHow to use our weather pages